Find Measat 3D

NORAD ID: 52904 Int'l Des: 2022-067 Owner: MEAS Country: MY operational
HEOCIRCULARGSOGEO

实时位置

正在加载3D地球...

关于 Measat 3D

正在加载描述...

即将过境

Passes for default location (London). Set your location on the main map for personalized predictions.

高度历史

Loading altitude history...

两行轨道根数

1 52904U 22067B 26105.70997527 -.00000235 00000-0 00000+0 0 9997
2 52904 0.0416 318.2953 0002242 41.3253 191.3222 1.00268911 14027
Epoch: Apr 15, 2026 • Age: 15 hours

当前状态

高度 35780.9 km
速度 3.08 km/s
星下点 0.03°N, 91.49°E
发射日期 Jun 22, 2022
运行时间 3.8 years
类型 other

技术详情

分类 Payload
质量 5648.00 kg
干质量 3000.00 kg
总质量 5648.00 kg
长度 4.30 m
直径 3.40 m
跨度 40.00 m
形状 Box + 2 pan
制造商 ADST
平台类型 Eurostar 3000
阶段状态 In Orbit
所有者/国家 MEAS/MY

Most Searched